Regional Weather Roundup
Issued by NWS

Home | Current Version | Previous Version | Text Only | Print | Product List | Glossary On
Versions: 1 2 3 4 5 6 7 8 9 10 11 12 13 14 15 16 17 18 19 20 21 22 23 24 25 26 27 28 29 30 31 32 33 34 35 36 37 38 39 40 41 42 43 44 45 46 47 48 49 50
000
ASUS45 KREV 050310
RWRNV
NEVADA REGIONAL WEATHER ROUNDUP
NATIONAL WEATHER SERVICE RENO NV
800 PM PDT SAT JUL 04 2015

NOTE: "FAIR" INDICATES FEW OR NO CLOUDS BELOW 12,000 FEET WITH NO
SIGNIFICANT WEATHER AND/OR OBSTRUCTIONS TO VISIBILITY.

NVZ001-003-004-050400-
WESTERN NEVADA

CITY           SKY/WX    TMP DP  RH WIND       PRES   REMARKS
RENO           CLOUDY    71  53  52 NE7       30.10R
CARSON CITY    FAIR      68  50  52 CALM      30.13S
MINDEN         FAIR      64  55  72 CALM      30.13R
SLIDE MTN        N/A     50  41  71 NE8         N/A
PYRAMID LAKE     N/A     66 N/A N/A SW7         N/A
FALLON         CLOUDY    66  61  84 S6        30.08R
LOVELOCK       LGT RAIN  66  63  90 SE6       30.08S
HAWTHORNE      CLEAR     70  59  68 CALM      30.10S
$$

NVZ002-CAZ072-073-050400-
NORTHERN AND CENTRAL SIERRA

CITY           SKY/WX    TMP DP  RH WIND       PRES   REMARKS
S. LAKE TAHOE  MOCLDY    63  54  72 CALM      30.18S
TRUCKEE        CLOUDY    63  57  82 N3        30.18R
SQUAW VLY 8000 NOT AVBL
SUSANVILLE     PTCLDY    79  46  31 E12       30.03R
BLUE CANYON    CLOUDY    72  54  53 SW5       30.11R
MAMMOTH LAKES  LGT RAIN  66  48  52 NW10      30.26R
BRIDGEPORT     FAIR      59  53  80 CALM      30.21S
$$

NVZ030-031-036-050400-
NORTHERN NEVADA

CITY           SKY/WX    TMP DP  RH WIND       PRES   REMARKS
ELKO           CLOUDY    74  52  46 W14       30.05R
WINNEMUCCA     CLOUDY    65  61  87 S12       30.10R
WENDOVER       CLOUDY    82  45  26 NW22G31   29.92R
$$

NVZ035-037-050400-
CENTRAL NEVADA

CITY           SKY/WX    TMP DP  RH WIND       PRES   REMARKS
ELY            LGT RAIN  72  49  44 NW7       30.14R
EUREKA           N/A     69  52  54 SW5       30.13F
$$

NVZ013-014-050400-
SOUTH CENTRAL NEVADA

CITY           SKY/WX    TMP DP  RH WIND       PRES   REMARKS
TONOPAH        PTCLDY    71  46  40 N8G18     30.14R
$$

NVZ017-020-022-050400-
SOUTHERN NEVADA

CITY           SKY/WX    TMP DP  RH WIND       PRES   REMARKS
LAS VEGAS      PTCLDY    99  48  17 E6        29.76R
N. LAS VEGAS   CLEAR     97  49  19 E7        29.79R
NELLIS AFB     CLEAR     98  50  19 SE9       29.76R
HENDERSON      CLEAR     98  46  17 CALM      29.83R
MERCURY        CLEAR     93  38  14 SW5       29.87R
$$


USA.gov is the U.S. government's official web portal to all federal, state and local government web resources and services.